Home   Weather   Luton   Past weeks

Flag for United Kingdom Past Weather in Luton, England, United Kingdom — Yesterday and Last 2 Weeks

Now
43 °F

Quite cool.


Feels Like: 35 °F
Forecast: 43 / 49 °F
Wind: 16 mph from West

Location: Luton Airport

Current Time: Dec 11, 2016 at 2:08:38 am

Latest Report: Dec 11, 2016 at 1:20 am


Visibility: N/A

Pressure: 30.15 "Hg

Humidity: 93%

Dew Point: 41 °F

Location of LutonLocation

Past Weather in Luton — Graph

°F

Luton Temperature Yesterday

Maximum temperature yesterday: 54 °F (at 3:20 pm)
Minimum temperature yesterday: 43 °F (at 11:20 pm)
Average temperature yesterday: 50 °F

High & Low Weather Summary for the Past Weeks

 TemperatureHumidityPressure
High55 °F (Dec 8, 2:50 pm)100% (Nov 26, 12:20 am)30.57 "Hg (Nov 26, 12:20 am)
Low25 °F (Nov 30, 3:50 am)57% (Nov 28, 12:20 pm)29.98 "Hg (Dec 10, 7:20 pm)
Average41 °F92%30.29 "Hg
* Reported Nov 26 12:20 am — Dec 11 12:50 am, Luton, Weather by CustomWeather, © 2016

Note: Actual official high and low records may vary slightly from our data, if they occured in-between our weather recording intervals... More about our weather records

Advertising

Luton Weather History for the Previous 24 Hours

Scroll right to see more
 ConditionsComfort  
Time TempWeatherWind HumidityBarometerVisibility
12:50 am
Sun, Dec 11
41 °FQuite cool.10 mph100%30.12 "HgN/A
12:20 am43 °FPassing clouds.12 mph100%30.12 "HgN/A
11:50 pm
Sat, Dec 10
43 °FQuite cool.12 mph100%30.12 "HgN/A
11:20 pm43 °FQuite cool.13 mph100%30.12 "HgN/A
10:50 pm45 °FQuite cool.13 mph100%30.09 "HgN/A
10:20 pm45 °FQuite cool.14 mph93%30.09 "HgN/A
9:50 pm45 °FLight rain. Passing clouds.14 mph100%30.09 "HgN/A
9:20 pm45 °FLight rain. Mostly cloudy.16 mph100%30.09 "HgN/A
8:50 pm46 °FLight rain. Mostly cloudy.24 mph93%30.07 "HgN/A
8:20 pm48 °FDrizzle. Low clouds.16 mph100%30.04 "Hg3 mi
7:50 pm50 °FLight rain. Low clouds.14 mph100%30.04 "Hg4 mi
7:20 pm52 °FLight rain. Low clouds.15 mph100%29.98 "Hg4 mi
6:50 pm52 °FDrizzle. Low clouds.13 mph100%30.01 "Hg2 mi
6:20 pm52 °FLight rain. Low clouds.13 mph100%30.01 "Hg2 mi
5:50 pm52 °FDrizzle. Low clouds.10 mph100%30.01 "Hg2 mi
5:20 pm52 °FDrizzle. Low clouds.9 mph100%30.04 "Hg3 mi
4:50 pm52 °FLight rain. Low clouds.10 mph100%30.07 "Hg4 mi
4:20 pm54 °FLight rain. Low clouds.9 mph100%30.07 "Hg4 mi
3:50 pm54 °FDrizzle. Low clouds.9 mph100%30.07 "Hg3 mi
3:20 pm54 °FDrizzle. Low clouds.8 mph100%30.09 "Hg2 mi
2:50 pm52 °FRain. Low clouds.8 mph100%30.09 "Hg2 mi
2:20 pm52 °FDrizzle. Low clouds.5 mph100%30.09 "Hg1 mi
1:50 pm52 °FDrizzle. Low clouds.5 mph100%30.09 "Hg2 mi
1:20 pm52 °FDrizzle. Low clouds.3 mph100%30.12 "Hg1 mi
12:50 pm52 °FDrizzle. Low clouds.2 mph100%30.12 "Hg1 mi
12:20 pm52 °FDrizzle. Low clouds.3 mph100%30.15 "Hg2 mi
11:50 am52 °FLow clouds.2 mph100%30.15 "HgN/A
11:20 am52 °FMostly cloudy.3 mph100%30.15 "Hg6 mi
10:50 am52 °FMostly cloudy.5 mph100%30.15 "Hg5 mi
10:20 am52 °FPartly sunny.7 mph100%30.18 "Hg4 mi
9:50 am52 °FLow clouds.6 mph100%30.18 "Hg4 mi
9:20 am52 °FFog.6 mph100%30.18 "Hg2 mi
8:50 am52 °FFog.6 mph100%30.18 "Hg2 mi
8:20 am52 °FFog.7 mph100%30.15 "Hg1 mi
7:50 am52 °FFog.6 mph100%30.15 "Hg1 mi
7:20 am52 °FFog.7 mph100%30.15 "Hg1 mi
6:50 am52 °FFog.7 mph100%30.15 "Hg1 mi
6:20 am52 °FFog.7 mph100%30.15 "Hg2 mi
5:50 am52 °FFog.6 mph100%30.15 "Hg2 mi
5:20 am52 °FFog.7 mph100%30.15 "Hg2 mi
4:50 am52 °FFog.7 mph100%30.15 "Hg1 mi
4:20 am50 °FDrizzle. Low clouds.6 mph100%30.15 "Hg1 mi
3:50 am50 °FDrizzle. Low clouds.6 mph100%30.15 "Hg1 mi
3:20 am50 °FDrizzle. Low clouds.6 mph100%30.15 "Hg1 mi
2:50 am50 °FLight rain. Low clouds.7 mph100%30.15 "Hg1 mi
2:20 am50 °FFog.8 mph100%30.15 "Hg1 mi
Weather by CustomWeather, © 2016

See weather overviewHow to use our weather pages